Location: Hobi?a Gr?di?te
(45.4833°N, 22.7833°E)
Time: 11:03:17
(UTC+00:00)

COSMOS 2455 - Pass Details

Date: 28 January 2023
Orbit: 898 x 911 km, 67.1° (Epoch: 01 April)

Event Time Altitude Azimuth Distance (km) Brightness Sun altitude
Rises 16:29:53 0° 206° (SSW) 3,507 6.6 -10.8°
Reaches altitude 10° 16:32:22 10° 205° (SSW) 2,572 5.8 -11.2°
Maximum altitude 16:38:20 80° 119° (ESE) 923 2.8 -12.2°
Drops below altitude 10° 16:44:22 10° 34° (NE) 2,598 4.8 -13.3°
Enters shadow 16:44:55 - 34° (NE) 2,803 5.0 -13.4°
